This is the latest recevied weather packets stored in our database for station/object CA3VLN-10. If no packets are shown the sender has not sent any weather packets the latest 10 day(s).
| Time | Temp. | Humidity | Pressure | Rain* | Wind** | Luminosity | Snow |
|---|---|---|---|---|---|---|---|
| 1787614128 | 20° C | 47% | 1006.8 hPa | - | - | - | - |
| 1787613228 | 20° C | 49% | 1007.1 hPa | - | - | - | - |
| 1787612328 | 20° C | 48% | 1006.9 hPa | - | - | - | - |
| 1787611428 | 20° C | 49% | 1007.7 hPa | - | - | - | - |
| 1787610528 | 20.56° C | 48% | 1007.2 hPa | - | - | - | - |
| 1787609628 | 20.56° C | 48% | 1006.9 hPa | - | - | - | - |
| 1787608728 | 20.56° C | 47% | 1007 hPa | - | - | - | - |
| 1787607828 | 21.11° C | 46% | 1006.9 hPa | - | - | - | - |
| 1787606928 | 21.11° C | 46% | 1007.5 hPa | - | - | - | - |
| 1787606040 | 21.11° C | 46% | 1007.4 hPa | - | - | - | - |
| 1787606027 | 21.11° C | 46% | 1007.4 hPa | - | - | - | - |
| 1787605127 | 21.67° C | 45% | 1008 hPa | - | - | - | - |
| 1787604227 | 21.67° C | 44% | 1007.4 hPa | - | - | - | - |
| 1787603327 | 22.22° C | 42% | 1006.8 hPa | - | - | - | - |
| 1787602427 | 22.78° C | 42% | 1006.7 hPa | - | - | - | - |
| 1787601527 | 23.89° C | 40% | 1006.2 hPa | - | - | - | - |
| 1787600627 | 23.89° C | 39% | 1006.3 hPa | - | - | - | - |
| 1787599727 | 23.89° C | 39% | 1006.5 hPa | - | - | - | - |
| 1787598826 | 24.44° C | 39% | 1007.3 hPa | - | - | - | - |
| 1787597926 | 25° C | 37% | 1006.1 hPa | - | - | - | - |
| 1787597026 | 25° C | 37% | 1006 hPa | - | - | - | - |
| 1787596126 | 25° C | 37% | 1006.7 hPa | - | - | - | - |
| 1787595226 | 24.44° C | 38% | 1007 hPa | - | - | - | - |
| 1787594326 | 24.44° C | 38% | 1007.3 hPa | - | - | - | - |
| 1787593426 | 24.44° C | 38% | 1007.2 hPa | - | - | - | - |
* Rain since midnight (hover to see other rain measurements)
** Current wind speed in m/s (hover to see current wind gust speed)